Location: Allos
(44.2333°N, 6.6333°E)
Time: 17:50:01
(UTC+00:00)

Daily predictions for brighter satellites

Satellite Brightness Start Highest point End
(mag) Time Altitude Azimuth Time Altitude Azimuth Time Altitude Azimuth
NOAA 6 4.0 16:20:14 10° SSE 16:25:20 70° ENE 16:30:28 10° N
Okean O Rocket 2.2 16:21:33 10° SE 16:25:29 34° ENE 16:29:27 10° N
Cosmos 1782 4.2 16:23:14 10° SE 16:26:05 19° E 16:28:58 10° NE
ISS -2.1 16:27:07 10° WNW 16:29:51 23° N 16:32:36 10° NE
H-2A R/B 3.0 16:26:04 10° S 16:29:53 76° WSW 16:33:48 10° NNW
CRYOSAT 2 4.5 16:25:05 10° NNE 16:29:56 58° E 16:34:45 10° S
Cosmos 1633 Rocket 3.4 16:26:57 10° N 16:31:08 43° ENE 16:35:15 10° SSE
Cosmos 1933 3.6 16:27:42 10° SSE 16:31:36 47° E 16:35:31 10° NNE
Meteor 2-12 Rocket 4.5 16:29:10 10° N 16:35:21 82° E 16:41:27 10° S
Cosmos 2218 Rocket 4.2 16:31:41 10° N 16:37:37 47° ENE 16:43:31 10° SSE
Cosmos 1867 4.2 16:32:47 10° SW 16:38:07 56° NW 16:43:31 10° NNE
Cosmos 2366 rocket 4.2 16:32:38 10° N 16:38:34 46° ENE 16:44:26 10° SSE
Meteor 1-25 Rocket 4.3 16:33:51 10° N 16:39:25 57° ENE 16:45:01 10° SSE
ERS-2 3.7 16:36:50 10° NE 16:39:27 18° E 16:42:02 10° SE
Envisat 3.1 16:36:30 10° SSE 16:41:35 83° WSW 16:46:42 10° NNW
Lacrosse 5 rocket 1.9 16:43:18 10° WSW 16:46:48 41° NW 16:50:13 10° NE
Cosmos 773 Rocket 4.0 16:42:34 10° S 16:47:47 68° ESE 16:53:03 10° NNE
SL-23 DEB 4.1 16:44:48 10° SW 16:48:10 59° SE 16:52:39 13° ENE
YAOGAN 6 2.8 16:47:06 10° S 16:50:43 75° WSW 16:54:19 10° NNW
Cosmos 1606 3.7 16:49:32 10° SSW 16:53:19 49° WNW 16:57:07 10° N
Cosmos 2297 4.0 16:49:20 10° NNW 16:55:02 74° WSW 17:00:43 10° SSE
FengYun 1-2 T 4.3 16:50:27 10° SSE 16:55:50 57° ENE 17:01:13 10° N
AQUARIUS 4.1 16:51:22 10° SSE 16:55:50 71° ENE 17:00:19 10° N
OE (NEXTSAT) 4.4 16:52:31 10° W 16:55:57 62° N 16:58:30 17° E
SL-16 R/B 2.5 16:52:13 10° SSW 16:57:51 69° WNW 17:03:30 10° NNE
CZ-4B R/B 1.9 16:56:26 12° NE 16:59:02 33° E 17:01:57 10° SSE
Landsat 5 4.3 16:55:45 10° N 17:00:09 59° WNW 17:04:35 10° SSW
BREEZE-M DEB (TANK) 1.7 16:59:50 10° WSW 17:02:26 64° NNW 17:03:26 24° NE
USA 215 4.1 16:59:20 14° ENE 17:04:12 32° SE 17:09:55 10° S
SMAP 3.1 17:00:12 10° SSE 17:04:51 83° WSW 17:09:32 10° NNW
Cosmos 1500 4.2 17:03:26 10° NNE 17:06:38 25° ENE 17:09:49 10° SE
YAOGAN 1 4.0 17:09:19 18° NE 17:09:19 18° NE 17:11:45 10° NNE
USA 238 DEB 4.4 17:03:43 10° S 17:09:16 30° ESE 17:13:06 18° ENE
USA 238 4.5 17:03:50 10° S 17:09:23 30° ESE 17:13:10 18° ENE
Cosmos 1656 Rocket 4.3 17:05:55 10° N 17:11:02 34° NE 17:16:03 10° ESE
Cosmos 1151 Rocket 3.1 17:07:25 10° SSW 17:11:42 77° W 17:15:59 10° N
Cosmos 1470 Rocket 3.4 17:09:22 10° N 17:13:40 69° E 17:17:58 10° SSE
Cosmos 1515 Rocket 3.5 17:15:22 10° S 17:19:41 65° E 17:24:05 10° NNE
Cosmos 2263 4.3 17:14:33 10° NNW 17:20:00 49° ENE 17:25:25 10° SE
CZ-2C R/B 3.6 17:16:23 10° SE 17:20:42 31° ENE 17:24:54 10° N
SL-8 Rocket 4.4 17:16:34 10° NNW 17:22:46 68° W 17:28:59 10° S
Cosmos 482 Debris 3.4 17:21:37 10° WNW 17:23:22 45° SW 17:23:45 37° S
Cosmos 1238 Rocket 3.8 17:22:09 10° NNE 17:25:49 31° ENE 17:30:07 10° SE
COSMO-SKYMED 1 2.7 17:23:06 14° NNE 17:26:44 50° E 17:30:57 10° S
Cosmos 1689 Rocket 3.8 17:29:01 19° SE 17:29:01 19° SE 17:30:14 10° SSE
USA 281 3.6 17:21:47 10° ESE 17:27:46 39° NE 17:33:46 10° NNW
X-37B 0.5 17:25:27 10° WSW 17:28:38 85° SSE 17:29:28 46° E
YAOGAN 3 4.5 17:24:29 10° SSE 17:28:48 66° ENE 17:33:09 10° N
Nadezhda 3 Rocket 4.2 17:23:01 10° SSE 17:29:03 47° E 17:35:07 10° NNE
SAR-Lupe-4 3.8 17:29:13 34° NE 17:30:18 45° E 17:33:44 10° S
Meteor 2-6 Rocket 4.3 17:26:43 10° SSE 17:32:05 50° E 17:37:14 11° NNE
Helios 1A Rocket 4.0 17:33:25 26° NE 17:33:25 26° NE 17:35:46 10° N
Cosmos 2228 Rocket 3.4 17:28:02 10° SSE 17:32:18 42° E 17:34:29 25° NE
Meteor 1-4 Rocket 3.2 17:30:10 10° SSW 17:33:42 55° WNW 17:37:12 10° N
H-2A R/B 2.8 17:35:17 29° ENE 17:35:34 30° ENE 17:39:58 10° N
Cosmos 1812 3.0 17:32:30 10° SSE 17:36:09 43° E 17:36:36 41° ENE
USA 267 3.8 17:34:11 25° ENE 17:37:17 39° NNE 17:43:15 10° NW
Cosmos 1939 Rocket 2.6 17:34:12 10° SSE 17:38:04 82° ENE 17:42:02 10° N
Cosmos 1821 Rocket 4.0 17:32:22 10° N 17:38:33 58° ENE 17:44:46 10° SSE
CZ-4 R/B 4.4 17:35:49 10° SSE 17:39:52 59° ENE 17:43:57 10° N
CZ-4 R/B 2.2 17:41:27 33° NNE 17:41:27 33° NNE 17:44:10 10° N
Meteor 1-11 Rocket 4.2 17:36:09 10° N 17:41:32 39° ENE 17:47:00 10° SE
BREEZE-M DEB (TANK) 3.1 17:39:18 10° SW 17:42:40 29° SSE 17:42:53 28° SE
PSLV R/B 4.0 17:42:20 43° ENE 17:43:06 49° E 17:47:02 10° S
Cosmos 44 Rocket 3.7 17:38:31 10° NNW 17:43:31 47° NE 17:45:09 35° E
Cosmos 1933 Rocket 3.6 17:39:16 10° N 17:43:45 83° W 17:48:12 10° S
IRS-1C Rocket 4.0 17:39:07 10° SSE 17:44:23 76° ENE 17:49:41 10° N
SAR-Lupe-1 3.9 17:46:35 53° NE 17:47:17 71° ESE 17:50:51 10° S
Lacrosse 4 Rocket 3.1 17:45:24 10° SSE 17:46:59 19° SSE 17:46:59 19° SSE
Cosmos 1680 Rocket 3.8 17:44:09 10° S 17:49:09 46° ESE 17:50:18 39° ENE
SKYMED 3 4.5 17:47:24 17° NNE 17:50:48 88° WNW 17:55:08 10° SSW
SL-24 R/B 3.5 17:49:33 39° NNE 17:50:51 82° ESE 17:54:29 10° S
Cosmos 1603 3.6 17:47:45 10° SSW 17:53:23 89° WNW 17:56:56 24° NNE
CZ-2D R/B 3.1 17:51:07 10° SSE 17:54:56 89° ENE 17:58:48 10° NNW
Cosmos 1943 3.1 17:51:05 10° SSW 17:56:45 86° ESE 17:59:58 27° NNE
Cosmos 2369 Rocket 2.7 17:54:08 10° NNW 17:59:45 62° WSW 18:05:17 10° S
Cosmos 1943 Rocket 3.7 17:55:48 10° NW 18:00:50 37° WSW 18:05:55 10° S
Okean O Rocket 4.0 17:58:22 10° SSW 18:01:54 24° W 18:05:26 10° NW
Meteor 1-5 Rocket 4.2 17:56:06 10° N 18:02:03 88° E 18:07:46 10° S
Okean-O 2.4 17:58:51 10° SSE 18:03:16 75° ENE 18:07:42 10° N
Cosmos 1461 3.8 17:59:16 10° S 18:02:44 38° SE 18:02:44 38° SE
ARGOS 4.4 18:08:31 25° NNE 18:08:31 25° NNE 18:11:02 10° N
CENTAUR R/B 2.6 18:01:20 10° S 18:06:52 50° ESE 18:07:44 46° E
ISS -1.8 18:04:18 10° NW 18:05:55 22° NNW 18:05:55 22° NNW
Cosmos 2112 Rocket 4.0 18:04:31 10° S 18:09:41 60° ESE 18:09:53 59° E
Cosmos 2056 Rocket 4.4 18:06:11 10° N 18:09:29 33° NNE 18:09:29 33° NNE
ERS-2 3.9 18:10:45 16° NNW 18:13:03 31° WNW 18:16:18 10° SW
SKYMED 2 4.4 18:11:44 17° N 18:14:48 49° WNW 18:18:59 10° SW
NOSS 3-2 (C) 3.3 18:09:35 10° SSW 18:14:59 54° ESE 18:15:09 54° ESE
Cosmos 1869 Rocket 3.7 18:14:00 10° N 18:22:43 11° S 18:22:58 10° S
BREEZE-M DEB (TANK) 3.1 18:12:12 10° WSW 18:19:59 84° SSW 18:19:59 84° SSW
Meteor 1-27 Rocket 3.7 18:15:19 10° S 18:20:11 60° SE 18:20:11 60° SE
Meteor 1-10 Rocket 4.3 18:19:37 10° SSW 18:25:15 73° W 18:28:49 23° N
Lacrosse 5 rocket 3.7 18:24:51 10° NW 18:25:53 13° NNW 18:25:53 13° NNW
CZ-4B R/B 4.4 18:29:34 10° NW 18:30:59 13° WNW 18:32:26 10° W
NOSS 3-2 (A) 3.6 18:34:44 10° SW 18:40:21 66° NW 18:41:26 55° N
YAOGAN 1 4.3 18:46:29 27° NW 18:46:29 27° NW 18:48:44 10° NNW
Cosmos 1535 Rocket 4.4 18:39:52 10° N 18:46:00 82° W 18:52:07 10° S
USA 215 3.2 18:46:42 67° NNE 18:47:35 78° NW 18:54:06 10° WSW
MOS 1 Rocket 4.4 18:52:43 36° NNW 18:54:28 49° WNW 18:59:37 10° SW
USA 238 DEB 4.0 18:53:15 10° SW 18:59:46 60° NW 19:00:34 56° NNW
USA 238 3.9 18:53:20 10° SW 18:59:51 61° NW 19:00:39 57° NNW
USA 281 4.1 19:05:54 10° S 19:12:09 46° WSW 19:18:26 10° NW
H-2A R/B 3.5 19:15:55 34° WNW 19:15:55 34° WNW 19:19:39 10° NNW
CZ-4 R/B 4.4 19:17:28 13° WNW 19:17:28 13° WNW 19:18:14 10° NW
USA 267 3.7 19:21:33 55° NW 19:21:33 55° NW 19:26:28 10° NW
CENTAUR R/B 4.2 19:52:00 10° WSW 19:54:58 27° W 19:54:58 27° W
